Time,TemperatureF,DewpointF,PressureIn,WindDirection,WindDirectionDegrees,WindSpeedMPH,WindSpeedGustMPH,Humidity,HourlyPrecipIn,Conditions,Clouds,dailyrainin,SoftwareType,DateUTC
2013-06-01 00:04:00,38.1,18.1,30.12,East,86,3.0,6.3,44,0.00,,,-99.99,FreeWX 2.04,2013-06-01 06:04:00,
2013-06-01 00:14:00,37.2,18.3,30.12,East,82,4.0,6.3,46,0.00,,,-99.99,FreeWX 2.04,2013-06-01 06:14:00,
2013-06-01 00:24:00,37.6,18.1,30.12,East,83,4.0,8.7,45,0.00,,,-99.99,FreeWX 2.04,2013-06-01 06:24:00,
2013-06-01 00:34:00,38.7,17.1,30.12,East,96,4.0,7.4,41,0.00,,,-99.99,FreeWX 2.04,2013-06-01 06:34:00,
2013-06-01 00:44:00,38.3,17.2,30.12,East,94,4.0,9.2,42,0.00,,,-99.99,FreeWX 2.04,2013-06-01 06:44:00,
2013-06-01 00:54:00,37.2,16.9,30.12,East,85,4.0,7.8,43,0.00,,,-99.99,FreeWX 2.04,2013-06-01 06:54:00,
2013-06-01 01:04:00,37.4,17.1,30.12,East,85,4.0,6.9,43,0.00,,,-99.99,FreeWX 2.04,2013-06-01 07:04:00,
2013-06-01 01:14:00,36.7,16.9,30.12,East,82,4.0,6.7,44,0.00,,,-99.99,FreeWX 2.04,2013-06-01 07:14:00,
2013-06-01 01:24:00,35.4,17.8,30.12,East,86,3.0,5.4,48,0.00,,,-99.99,FreeWX 2.04,2013-06-01 07:24:00,
2013-06-01 01:34:00,35.4,18.1,30.12,East,83,3.0,6.7,49,0.00,,,-99.99,FreeWX 2.04,2013-06-01 07:34:00,
2013-06-01 01:44:00,34.9,18.1,30.12,ENE,76,3.0,5.8,50,0.00,,,-99.99,FreeWX 2.04,2013-06-01 07:44:00,
2013-06-01 01:54:00,35.1,17.8,30.12,East,85,3.0,6.3,49,0.00,,,-99.99,FreeWX 2.04,2013-06-01 07:54:00,
2013-06-01 02:04:00,35.1,17.4,30.12,East,83,4.0,6.9,48,0.00,,,-99.99,FreeWX 2.04,2013-06-01 08:04:00,
2013-06-01 02:14:00,34.5,17.4,30.12,East,87,2.0,6.3,49,0.00,,,-99.99,FreeWX 2.04,2013-06-01 08:14:00,
2013-06-01 02:24:00,34.0,17.2,30.12,East,85,2.0,5.4,50,0.00,,,-99.99,FreeWX 2.04,2013-06-01 08:24:00,
2013-06-01 02:34:00,34.2,17.4,30.12,East,85,2.0,6.7,50,0.00,,,-99.99,FreeWX 2.04,2013-06-01 08:34:00,
2013-06-01 02:44:00,33.8,17.2,30.12,East,81,4.0,5.8,50,0.00,,,-99.99,FreeWX 2.04,2013-06-01 08:44:00,
2013-06-01 02:54:00,33.8,17.2,30.12,East,79,4.0,7.8,50,0.00,,,-99.99,FreeWX 2.04,2013-06-01 08:54:00,
2013-06-01 03:04:00,33.8,16.7,30.12,East,86,3.0,8.3,49,0.00,,,-99.99,FreeWX 2.04,2013-06-01 09:04:00,
2013-06-01 03:14:00,33.3,16.7,30.12,East,81,3.0,7.4,50,0.00,,,-99.99,FreeWX 2.04,2013-06-01 09:14:00,
2013-06-01 03:24:00,33.4,16.9,30.12,East,86,4.0,9.2,50,0.00,,,-99.99,FreeWX 2.04,2013-06-01 09:24:00,
2013-06-01 03:34:00,32.9,16.7,30.12,East,82,3.0,6.9,51,0.00,,,-99.99,FreeWX 2.04,2013-06-01 09:34:00,
2013-06-01 03:44:00,32.7,17.1,30.12,East,80,4.0,5.8,52,0.00,,,-99.99,FreeWX 2.04,2013-06-01 09:44:00,
2013-06-01 03:54:00,32.9,16.7,30.12,East,82,4.0,9.6,51,0.00,,,-99.99,FreeWX 2.04,2013-06-01 09:54:00,
2013-06-01 04:04:00,33.1,16.9,30.12,East,84,4.0,6.9,51,0.00,,,-99.99,FreeWX 2.04,2013-06-01 10:04:00,
2013-06-01 04:14:00,32.5,16.9,30.12,East,81,3.0,6.3,52,0.00,,,-99.99,FreeWX 2.04,2013-06-01 10:14:00,
2013-06-01 04:24:00,32.7,17.1,30.12,East,81,4.0,8.7,52,0.00,,,-99.99,FreeWX 2.04,2013-06-01 10:24:00,
2013-06-01 04:34:00,32.9,16.7,30.12,East,89,4.0,6.7,51,0.00,,,-99.99,FreeWX 2.04,2013-06-01 10:34:00,
2013-06-01 04:44:00,32.5,16.9,30.12,East,81,4.0,5.4,52,0.00,,,-99.99,FreeWX 2.04,2013-06-01 10:44:00,
2013-06-01 04:54:00,32.5,16.9,30.12,ENE,78,4.0,6.7,52,0.00,,,-99.99,FreeWX 2.04,2013-06-01 10:54:00,
2013-06-01 05:04:00,33.3,17.1,30.12,East,85,4.0,7.8,51,0.00,,,-99.99,FreeWX 2.04,2013-06-01 11:04:00,
2013-06-01 05:14:00,32.4,16.7,30.12,ENE,77,4.0,6.3,52,0.00,,,-99.99,FreeWX 2.04,2013-06-01 11:14:00,
2013-06-01 05:24:00,32.2,16.5,30.12,East,79,3.0,5.4,52,0.00,,,-99.99,FreeWX 2.04,2013-06-01 11:24:00,
2013-06-01 05:34:00,32.2,16.5,30.12,East,83,4.0,6.7,52,0.00,,,-99.99,FreeWX 2.04,2013-06-01 11:34:00,
2013-06-01 05:44:00,32.5,16.9,30.12,East,80,3.0,6.9,52,0.00,,,-99.99,FreeWX 2.04,2013-06-01 11:44:00,
2013-06-01 05:54:00,32.2,16.5,30.12,ENE,77,3.0,5.4,52,0.00,,,-99.99,FreeWX 2.04,2013-06-01 11:54:00,
2013-06-01 06:04:00,32.0,16.3,30.12,ENE,74,3.0,4.9,52,0.00,,,-99.99,FreeWX 2.04,2013-06-01 12:04:00,
2013-06-01 06:14:00,32.4,16.7,30.12,East,84,4.0,6.9,52,0.00,,,-99.99,FreeWX 2.04,2013-06-01 12:14:00,
2013-06-01 06:24:00,32.7,16.7,30.12,East,89,3.0,6.7,51,0.00,,,-99.99,FreeWX 2.04,2013-06-01 12:24:00,
2013-06-01 06:34:00,33.4,16.9,30.12,ENE,78,3.0,4.9,50,0.00,,,-99.99,FreeWX 2.04,2013-06-01 12:34:00,
2013-06-01 06:44:00,34.3,16.7,30.12,East,80,3.0,5.8,48,0.00,,,-99.99,FreeWX 2.04,2013-06-01 12:44:00,
2013-06-01 06:54:00,34.9,15.8,30.12,East,81,3.0,5.8,45,0.00,,,-99.99,FreeWX 2.04,2013-06-01 12:54:00,
2013-06-01 07:04:00,36.0,15.6,30.12,East,83,4.0,9.6,43,0.00,,,-99.99,FreeWX 2.04,2013-06-01 13:04:00,
2013-06-01 07:14:00,37.0,15.6,30.12,East,99,4.0,7.4,41,0.00,,,-99.99,FreeWX 2.04,2013-06-01 13:14:00,
2013-06-01 07:24:00,38.7,15.8,30.12,East,97,4.0,6.7,39,0.00,,,-99.99,FreeWX 2.04,2013-06-01 13:24:00,
2013-06-01 07:34:00,39.7,16.2,30.12,ESE,103,3.0,6.9,38,0.00,,,-99.99,FreeWX 2.04,2013-06-01 13:34:00,
2013-06-01 07:44:00,41.0,15.4,30.12,East,100,3.0,5.8,35,0.00,,,-99.99,FreeWX 2.04,2013-06-01 13:44:00,
2013-06-01 07:54:00,42.6,16.9,30.12,North,-999,0.0,4.0,35,0.00,,,-99.99,FreeWX 2.04,2013-06-01 13:54:00,
2013-06-01 08:04:00,44.2,15.6,30.12,North,-999,0.0,4.5,31,0.00,,,-99.99,FreeWX 2.04,2013-06-01 14:04:00,
2013-06-01 08:14:00,45.9,14.5,30.12,East,91,1.0,5.8,28,0.00,,,-99.99,FreeWX 2.04,2013-06-01 14:14:00,
2013-06-01 08:24:00,47.8,16.3,30.12,North,-999,0.0,0.0,28,0.00,,,-99.99,FreeWX 2.04,2013-06-01 14:24:00,
2013-06-01 08:34:00,49.8,11.5,30.12,North,-999,0.0,0.0,21,0.00,,,-99.99,FreeWX 2.04,2013-06-01 14:34:00,
2013-06-01 08:44:00,51.3,12.7,30.12,North,-999,0.0,0.0,21,0.00,,,-99.99,FreeWX 2.04,2013-06-01 14:44:00,
2013-06-01 08:54:00,51.8,9.7,30.12,North,-999,0.0,0.0,18,0.00,,,-99.99,FreeWX 2.04,2013-06-01 14:54:00,
2013-06-01 09:04:00,52.7,10.4,30.12,North,-999,0.0,0.0,18,0.00,,,-99.99,FreeWX 2.04,2013-06-01 15:04:00,
2013-06-01 09:14:00,53.1,10.8,30.12,North,-999,0.0,4.9,18,0.00,,,-99.99,FreeWX 2.04,2013-06-01 15:14:00,
2013-06-01 09:24:00,54.0,7.3,30.12,North,355,1.0,6.7,15,0.00,,,-99.99,FreeWX 2.04,2013-06-01 15:24:00,
2013-06-01 09:34:00,53.8,7.2,30.12,NNW,340,2.0,5.4,15,0.00,,,-99.99,FreeWX 2.04,2013-06-01 15:34:00,
2013-06-01 09:44:00,54.5,4.6,30.12,North,0,2.0,7.8,13,0.00,,,-99.99,FreeWX 2.04,2013-06-01 15:44:00,
2013-06-01 09:54:00,55.2,8.4,30.12,NNE,21,2.0,6.7,15,0.00,,,-99.99,FreeWX 2.04,2013-06-01 15:54:00,
2013-06-01 10:04:00,55.8,8.8,30.12,NW,325,2.0,6.9,15,0.00,,,-99.99,FreeWX 2.04,2013-06-01 16:04:00,
2013-06-01 10:14:00,55.4,8.6,30.12,NNW,328,3.0,8.7,15,0.00,,,-99.99,FreeWX 2.04,2013-06-01 16:14:00,
2013-06-01 10:24:00,55.8,8.8,30.12,NNW,339,3.0,6.9,15,0.00,,,-99.99,FreeWX 2.04,2013-06-01 16:24:00,
2013-06-01 10:34:00,56.5,7.9,30.12,NNW,327,2.0,7.4,14,0.00,,,-99.99,FreeWX 2.04,2013-06-01 16:34:00,
2013-06-01 10:44:00,57.2,8.4,30.09,ENE,60,1.0,6.9,14,0.00,,,-99.99,FreeWX 2.04,2013-06-01 16:44:00,
2013-06-01 10:54:00,56.5,7.9,30.09,NNW,328,5.0,10.1,14,0.00,,,-99.99,FreeWX 2.04,2013-06-01 16:54:00,
2013-06-01 11:04:00,57.0,8.2,30.09,NNW,330,5.0,11.0,14,0.00,,,-99.99,FreeWX 2.04,2013-06-01 17:04:00,
2013-06-01 11:14:00,57.2,8.4,30.09,North,352,4.0,11.0,14,0.00,,,-99.99,FreeWX 2.04,2013-06-01 17:14:00,
2013-06-01 11:24:00,57.2,8.4,30.09,North,355,5.0,9.6,14,0.00,,,-99.99,FreeWX 2.04,2013-06-01 17:24:00,
2013-06-01 11:34:00,58.3,9.3,30.09,North,11,4.0,10.1,14,0.00,,,-99.99,FreeWX 2.04,2013-06-01 17:34:00,
2013-06-01 11:44:00,58.1,9.1,30.09,NNW,345,5.0,11.6,14,0.00,,,-99.99,FreeWX 2.04,2013-06-01 17:44:00,
2013-06-01 11:54:00,58.3,9.3,30.09,North,6,4.0,10.1,14,0.00,,,-99.99,FreeWX 2.04,2013-06-01 17:54:00,
2013-06-01 12:04:00,58.8,9.7,30.09,NNW,340,4.0,8.3,14,0.00,,,-99.99,FreeWX 2.04,2013-06-01 18:04:00,
2013-06-01 12:15:00,58.5,9.5,30.09,NW,325,6.0,10.5,14,0.00,,,-99.99,FreeWX 2.04,2013-06-01 18:15:00,
2013-06-01 12:25:00,59.0,9.9,30.09,North,352,5.0,10.5,14,0.00,,,-99.99,FreeWX 2.04,2013-06-01 18:25:00,
2013-06-01 12:35:00,59.4,10.2,30.09,NNW,328,3.0,10.1,14,0.00,,,-99.99,FreeWX 2.04,2013-06-01 18:35:00,
2013-06-01 12:45:00,59.7,10.4,30.09,North,349,3.0,6.9,14,0.00,,,-99.99,FreeWX 2.04,2013-06-01 18:45:00,
2013-06-01 12:55:00,60.3,10.9,30.09,NNW,345,4.0,9.6,14,0.00,,,-99.99,FreeWX 2.04,2013-06-01 18:55:00,
2013-06-01 13:05:00,60.6,11.1,30.09,NNW,341,4.0,10.5,14,0.00,,,-99.99,FreeWX 2.04,2013-06-01 19:05:00,
2013-06-01 13:15:00,60.4,11.1,30.06,NW,325,6.0,11.6,14,0.00,,,-99.99,FreeWX 2.04,2013-06-01 19:15:00,
2013-06-01 13:25:00,61.3,11.8,30.06,NNW,342,2.0,7.4,14,0.00,,,-99.99,FreeWX 2.04,2013-06-01 19:25:00,
2013-06-01 13:35:00,61.2,11.7,30.06,NNW,339,6.0,10.5,14,0.00,,,-99.99,FreeWX 2.04,2013-06-01 19:35:00,
2013-06-01 13:45:00,61.5,11.8,30.06,NNW,343,3.0,7.4,14,0.00,,,-99.99,FreeWX 2.04,2013-06-01 19:45:00,
2013-06-01 13:55:00,61.9,10.6,30.06,North,349,4.0,9.2,13,0.00,,,-99.99,FreeWX 2.04,2013-06-01 19:55:00,
2013-06-01 14:05:00,62.4,10.9,30.06,NNW,331,5.0,11.2,13,0.00,,,-99.99,FreeWX 2.04,2013-06-01 20:05:00,
2013-06-01 14:15:00,62.6,11.1,30.06,NNW,340,4.0,8.3,13,0.00,,,-99.99,FreeWX 2.04,2013-06-01 20:15:00,
2013-06-01 14:25:00,63.9,-99.9,30.06,West,274,4.0,10.5,-999,0.00,,,-99.99,FreeWX 2.04,2013-06-01 20:25:00,
2013-06-01 14:35:00,64.8,12.7,30.06,West,266,2.0,6.7,13,0.00,,,-99.99,FreeWX 2.04,2013-06-01 20:35:00,
2013-06-01 14:45:00,64.4,-99.9,30.06,WSW,254,2.0,8.7,-999,0.00,,,-99.99,FreeWX 2.04,2013-06-01 20:45:00,
2013-06-01 14:55:00,63.9,-99.9,30.06,NW,307,6.0,10.1,-999,0.00,,,-99.99,FreeWX 2.04,2013-06-01 20:55:00,
2013-06-01 15:05:00,64.8,-99.9,30.03,WNW,289,6.0,10.5,-999,0.00,,,-99.99,FreeWX 2.04,2013-06-01 21:05:00,
2013-06-01 15:15:00,64.9,12.9,30.03,WNW,289,5.0,10.5,13,0.00,,,-99.99,FreeWX 2.04,2013-06-01 21:15:00,
2013-06-01 15:25:00,64.8,12.7,30.03,NW,310,4.0,8.7,13,0.00,,,-99.99,FreeWX 2.04,2013-06-01 21:25:00,
2013-06-01 15:35:00,65.8,-99.9,30.03,WNW,282,4.0,11.0,-999,0.00,,,-99.99,FreeWX 2.04,2013-06-01 21:35:00,
2013-06-01 15:45:00,67.1,12.7,30.03,WSW,253,1.0,5.8,12,0.00,,,-99.99,FreeWX 2.04,2013-06-01 21:45:00,
2013-06-01 15:55:00,66.6,12.4,30.03,West,280,4.0,10.1,12,0.00,,,-99.99,FreeWX 2.04,2013-06-01 21:55:00,
2013-06-01 16:05:00,65.3,13.3,30.03,NW,319,4.0,10.1,13,0.00,,,-99.99,FreeWX 2.04,2013-06-01 22:05:00,
2013-06-01 16:15:00,66.0,12.0,30.03,SW,225,2.0,6.9,12,0.00,,,-99.99,FreeWX 2.04,2013-06-01 22:15:00,
2013-06-01 16:25:00,66.2,-99.9,30.03,WSW,247,3.0,7.8,-999,0.00,,,-99.99,FreeWX 2.04,2013-06-01 22:25:00,
2013-06-01 16:35:00,67.5,13.1,30.03,West,263,4.0,8.7,12,0.00,,,-99.99,FreeWX 2.04,2013-06-01 22:35:00,
2013-06-01 16:45:00,66.0,12.0,30.03,NW,305,6.0,11.6,12,0.00,,,-99.99,FreeWX 2.04,2013-06-01 22:45:00,
2013-06-01 16:55:00,65.5,11.5,30.03,NW,304,6.0,10.1,12,0.00,,,-99.99,FreeWX 2.04,2013-06-01 22:55:00,
2013-06-01 17:05:00,65.5,11.5,30.00,NNW,336,4.0,8.7,12,0.00,,,-99.99,FreeWX 2.04,2013-06-01 23:05:00,
2013-06-01 17:15:00,64.6,12.6,30.00,NNW,333,6.0,11.2,13,0.00,,,-99.99,FreeWX 2.04,2013-06-01 23:15:00,
2013-06-01 17:25:00,65.1,13.1,30.00,NNW,330,6.0,11.0,13,0.00,,,-99.99,FreeWX 2.04,2013-06-01 23:25:00,
2013-06-01 17:35:00,65.5,11.5,30.00,NNE,27,3.0,7.8,12,0.00,,,-99.99,FreeWX 2.04,2013-06-01 23:35:00,
2013-06-01 17:45:00,64.6,12.6,30.00,North,0,4.0,9.2,13,0.00,,,-99.99,FreeWX 2.04,2013-06-01 23:45:00,
2013-06-01 17:55:00,66.9,12.7,30.00,WSW,250,2.0,7.8,12,0.00,,,-99.99,FreeWX 2.04,2013-06-01 23:55:00,
2013-06-01 18:05:00,65.3,11.5,30.00,NW,326,5.0,9.6,12,0.00,,,-99.99,FreeWX 2.04,2013-06-02 00:05:00,
2013-06-01 18:15:00,65.3,13.3,30.00,NNW,333,5.0,9.6,13,0.00,,,-99.99,FreeWX 2.04,2013-06-02 00:15:00,
2013-06-01 18:25:00,65.5,11.5,30.00,NW,325,5.0,9.2,12,0.00,,,-99.99,FreeWX 2.04,2013-06-02 00:25:00,
2013-06-01 18:35:00,65.3,11.5,30.00,NW,312,5.0,8.3,12,0.00,,,-99.99,FreeWX 2.04,2013-06-02 00:35:00,
2013-06-01 18:45:00,63.9,12.0,30.00,NNW,337,5.0,9.2,13,0.00,,,-99.99,FreeWX 2.04,2013-06-02 00:45:00,
2013-06-01 18:55:00,63.3,11.7,30.00,NNW,334,6.0,10.1,13,0.00,,,-99.99,FreeWX 2.04,2013-06-02 00:55:00,
2013-06-01 19:05:00,63.7,12.0,30.00,NNW,335,6.0,9.6,13,0.00,,,-99.99,FreeWX 2.04,2013-06-02 01:05:00,
2013-06-01 19:15:00,63.3,11.7,30.00,NNW,332,5.0,7.8,13,0.00,,,-99.99,FreeWX 2.04,2013-06-02 01:15:00,
2013-06-01 19:25:00,62.6,11.1,30.00,NNW,335,5.0,7.8,13,0.00,,,-99.99,FreeWX 2.04,2013-06-02 01:25:00,
2013-06-01 19:35:00,61.5,11.8,30.00,NNW,339,5.0,7.8,14,0.00,,,-99.99,FreeWX 2.04,2013-06-02 01:35:00,
2013-06-01 19:45:00,60.3,10.9,30.00,NNW,328,4.0,8.3,14,0.00,,,-99.99,FreeWX 2.04,2013-06-02 01:45:00,
2013-06-01 19:55:00,59.7,14.9,30.00,NW,321,3.0,6.3,17,0.00,,,-99.99,FreeWX 2.04,2013-06-02 01:55:00,
2013-06-01 20:05:00,60.1,13.8,30.00,NW,305,1.0,6.7,16,0.00,,,-99.99,FreeWX 2.04,2013-06-02 02:05:00,
2013-06-01 20:15:00,58.1,16.2,30.00,NW,320,3.0,6.7,19,0.00,,,-99.99,FreeWX 2.04,2013-06-02 02:15:00,
2013-06-01 20:25:00,56.5,22.1,30.00,North,-999,0.0,4.9,26,0.00,,,-99.99,FreeWX 2.04,2013-06-02 02:25:00,
2013-06-01 20:35:00,55.9,22.5,30.00,North,-999,0.0,0.0,27,0.00,,,-99.99,FreeWX 2.04,2013-06-02 02:35:00,
2013-06-01 20:45:00,54.5,25.3,30.00,North,-999,0.0,0.0,32,0.00,,,-99.99,FreeWX 2.04,2013-06-02 02:45:00,
2013-06-01 20:55:00,52.9,26.6,30.00,North,-999,0.0,0.0,36,0.00,,,-99.99,FreeWX 2.04,2013-06-02 02:55:00,
2013-06-01 21:05:00,50.7,25.3,30.00,North,-999,0.0,5.4,37,0.00,,,-99.99,FreeWX 2.04,2013-06-02 03:05:00,
2013-06-01 21:15:00,50.2,25.0,30.00,ESE,115,4.0,6.3,37,0.00,,,-99.99,FreeWX 2.04,2013-06-02 03:15:00,
2013-06-01 21:25:00,49.6,24.4,30.00,ESE,113,4.0,6.7,37,0.00,,,-99.99,FreeWX 2.04,2013-06-02 03:25:00,
2013-06-01 21:35:00,48.6,24.1,30.00,East,99,2.0,5.4,38,0.00,,,-99.99,FreeWX 2.04,2013-06-02 03:35:00,
2013-06-01 21:45:00,48.4,24.6,30.00,ESE,103,3.0,6.7,39,0.00,,,-99.99,FreeWX 2.04,2013-06-02 03:45:00,
2013-06-01 21:55:00,47.3,24.3,30.00,East,82,3.0,6.7,40,0.00,,,-99.99,FreeWX 2.04,2013-06-02 03:55:00,
2013-06-01 22:05:00,47.8,24.1,30.00,East,86,3.0,7.4,39,0.00,,,-99.99,FreeWX 2.04,2013-06-02 04:05:00,
2013-06-01 22:15:00,48.2,23.7,30.00,East,93,4.0,8.7,38,0.00,,,-99.99,FreeWX 2.04,2013-06-02 04:15:00,
2013-06-01 22:25:00,47.5,23.2,30.00,East,87,4.0,7.4,38,0.00,,,-99.99,FreeWX 2.04,2013-06-02 04:25:00,
2013-06-01 22:35:00,48.7,23.7,30.00,East,100,5.0,9.2,37,0.00,,,-99.99,FreeWX 2.04,2013-06-02 04:35:00,
2013-06-01 22:45:00,48.2,23.2,30.00,ESE,106,6.0,10.5,37,0.00,,,-99.99,FreeWX 2.04,2013-06-02 04:45:00,
2013-06-01 22:55:00,47.7,22.6,30.00,East,99,5.0,11.0,37,0.00,,,-99.99,FreeWX 2.04,2013-06-02 04:55:00,
2013-06-01 23:05:00,48.0,23.0,30.00,ESE,104,6.0,10.1,37,0.00,,,-99.99,FreeWX 2.04,2013-06-02 05:05:00,
2013-06-01 23:15:00,48.0,22.3,30.00,ESE,107,6.0,9.6,36,0.00,,,-99.99,FreeWX 2.04,2013-06-02 05:15:00,
2013-06-01 23:25:00,47.8,21.6,30.00,ESE,114,6.0,9.6,35,0.00,,,-99.99,FreeWX 2.04,2013-06-02 05:25:00,
2013-06-01 23:35:00,47.7,21.4,29.97,ESE,112,7.0,12.1,35,0.00,,,-99.99,FreeWX 2.04,2013-06-02 05:35:00,
2013-06-01 23:45:00,47.3,21.0,29.97,ESE,110,6.0,10.5,35,0.00,,,-99.99,FreeWX 2.04,2013-06-02 05:45:00,
2013-06-01 23:55:00,47.3,21.0,29.97,ESE,117,6.0,11.6,35,0.00,,,-99.99,FreeWX 2.04,2013-06-02 05:55:00,